HISPASAT 30W-5

Last updated on Thu Jul 03 2025 00:02:45 GMT+0000 (Coordinated Universal Time)

1 37264U 10070A 25183.43933465 -.00000209 00000+0 00000+0 0 9996 2 37264 0.0399 110.6411 0005648 6.3957 291.8318 1.00271982 49670
UTC large
Height (km)
Speed (km/s)
/
Latitude / Longitude
Inclination (degrees)
Orbital Period (minutes)
Azimuth
Elevation
Range (km)
Doppler Factor

Next 0 passes for location: London (51.5072 / 0.1276)

Sorry there are no passes over London.